Regional Weather Roundup
Issued by NWS

Home | Current Version | Previous Version | Graphics & Text | Print | Product List | Glossary On
Versions: 1 2 3 4 5 6 7 8 9 10 11 12 13 14 15 16 17 18 19 20 21 22 23 24 25 26 27 28 29 30 31 32 33 34 35 36 37 38 39 40 41 42 43 44 45 46 47 48 49 50
271
ASUS43 KLMK 171510
RWRKY
KENTUCKY REGIONAL WEATHER ROUNDUP
NATIONAL WEATHER SERVICE LOUISVILLE KY
1000 AM EST WED JAN 17 2018

NOTE "FAIR" INDICATES FEW OR NO CLOUDS BELOW 12,000 FEET
WITH NO SIGNIFICANT WEATHER AND/OR OBSTRUCTIONS TO VISIBILITY.

KYZ001>023-026-027-061>063-070>075-171600-
WESTERN AND SOUTH CENTRAL KENTUCKY

CITY           SKY/WX    TMP DP  RH WIND       PRES   REMARKS
PADUCAH        FAIR       9   4  80 SW3       30.70R
HENDERSON      NOT AVBL
OWENSBORO      LGT SNOW  12   6  77 NW9       30.68R WCI   0
HOPKINSVILLE   CLOUDY    10   5  80 NW6       30.68R BLWGSNOWWCI   0
BOWLING GREEN  LGT SNOW  11   6  81 NW6       30.67R WCI   1
GLASGOW        LGT SNOW  11   6  80 CALM      30.64R
$$

KYZ024-025-028>034-038-045-046-053-171600-
NORTH CENTRAL KENTUCKY

CITY           SKY/WX    TMP DP  RH WIND       PRES   REMARKS
LOUISVILLE/SDF LGT SNOW  11   6  81 NW8       30.63R WCI  -1
LOUISVILLE/LOU CLOUDY    11   7  84 NW5       30.63R FOG     WCI   3
FORT KNOX      CLOUDY    10   5  82 W7        30.59R BLWGSNOWWCI  -1
$$

KYZ035>037-039>044-047>052-055>060-089>105-171600-
NORTHEAST KENTUCKY

CITY           SKY/WX    TMP DP  RH WIND       PRES   REMARKS
LEXINGTON      LGT SNOW   9   4  80 W5        30.57R WCI   1
COVINGTON      LGT SNOW  10   7  87 W5        30.55R VSB 1   WCI   2
FRANKFORT      LGT SNOW  10   3  73 NW6       30.58R WCI   0
$$

KYZ054-064>069-076>088-106>120-171600-
SOUTHEAST KENTUCKY

CITY           SKY/WX    TMP DP  RH WIND       PRES   REMARKS
JACKSON        CLOUDY     7   0  73 VRB3      30.49S HAZE
LONDON         CLOUDY     7   2  80 N7        30.53R WCI  -5
SOMERSET       CLOUDY     9   1  72 N8G18     30.60R HAZE    WCI  -4
MIDDLESBORO    CLOUDY     8   1  73 N8        30.52R WCI  -5
MONTICELLO     LGT SNOW   9   5  84 N15       30.60R FOG     WCI  -8
$$





USA.gov is the U.S. government's official web portal to all federal, state and local government web resources and services.